| time (UTC) | temp F | wind direction | speed MPH | gust MPH | rain 1hr in | rain 24hr in | rain mn in | humidity % | barometer mb |
| 20260510051530 | 54 | 171 | 2.0 | 4.0 | 0.00 | 0.00 | 0.00 | 85 | 1011.1 |
| 20260510050116 | 54 | 145 | 2.0 | 6.0 | 0.00 | 0.00 | 0.00 | 85 | 1011.1 |
| 20260510044536 | 54 | 165 | 4.0 | 6.0 | 0.00 | 0.00 | 0.00 | 85 | 1011.0 |
| 20260510043127 | 55 | 180 | 3.0 | 6.0 | 0.00 | 0.00 | 0.00 | 84 | 1010.9 |
| 20260510041600 | 55 | 141 | 3.0 | 6.0 | 0.00 | 0.00 | 0.00 | 83 | 1010.7 |
| 20260510040005 | 56 | 173 | 5.0 | 9.0 | 0.00 | 0.00 | 0.00 | 83 | 1010.6 |
| 20260510034604 | 56 | 156 | 5.0 | 8.0 | 0.00 | 0.00 | 0.00 | 83 | 1010.4 |
| 20260510033018 | 57 | 167 | 6.0 | 11.0 | 0.00 | 0.00 | 0.00 | 82 | 1010.3 |
| 20260510031612 | 57 | 160 | 3.0 | 9.0 | 0.00 | 0.00 | 0.00 | 82 | 1010.2 |
| 20260510030036 | 58 | 146 | 5.0 | 7.0 | 0.00 | 0.00 | 0.00 | 81 | 1010.1 |
| 20260510024623 | 58 | 162 | 4.0 | 7.0 | 0.00 | 0.00 | 0.00 | 79 | 1009.9 |
| 20260510023044 | 60 | 189 | 3.0 | 7.0 | 0.00 | 0.00 | 0.00 | 77 | 1009.7 |
| 20260510021513 | 61 | 173 | 5.0 | 8.0 | 0.00 | 0.00 | 0.00 | 75 | 1009.7 |
| 20260510020112 | 62 | 170 | 4.0 | 9.0 | 0.00 | 0.00 | 0.00 | 74 | 1009.7 |
| 20260510014522 | 63 | 193 | 7.0 | 10.0 | 0.00 | 0.00 | 0.00 | 72 | 1009.6 |
| 20260510013115 | 64 | 199 | 5.0 | 9.0 | 0.00 | 0.00 | 0.00 | 70 | 1009.5 |
| 20260510011532 | 66 | 207 | 5.0 | 8.0 | 0.00 | 0.00 | 0.00 | 68 | 1009.5 |
| 20260510010126 | 66 | 190 | 6.0 | 9.0 | 0.00 | 0.00 | 0.00 | 68 | 1009.4 |
| 20260510004548 | 67 | 194 | 5.0 | 10.0 | 0.00 | 0.00 | 0.00 | 67 | 1009.4 |
| 20260510003008 | 68 | 185 | 6.0 | 10.0 | 0.00 | 0.00 | 0.00 | 66 | 1009.4 |
| 20260510001558 | 68 | 179 | 6.0 | 10.0 | 0.00 | 0.00 | 0.00 | 67 | 1009.2 |
| 20260510000022 | 68 | 201 | 10.0 | 16.0 | 0.00 | 0.00 | 0.00 | 67 | 1009.4 |
| 20260509234615 | 69 | 205 | 9.0 | 14.0 | 0.00 | 0.00 | 0.00 | 67 | 1009.3 |
| 20260509233032 | 70 | 203 | 9.0 | 18.0 | 0.00 | 0.00 | 0.00 | 64 | 1009.3 |
| 20260509231622 | 71 | 209 | 8.0 | 13.0 | 0.00 | 0.00 | 0.00 | 64 | 1009.3 |
| 20260509230042 | 71 | 221 | 7.0 | 13.0 | 0.00 | 0.00 | 0.00 | 63 | 1009.4 |
| 20260509224636 | 71 | 207 | 7.0 | 13.0 | 0.00 | 0.00 | 0.00 | 65 | 1009.5 |
| 20260509223055 | 71 | 221 | 8.0 | 13.0 | 0.00 | 0.00 | 0.00 | 65 | 1009.6 |
| 20260509221509 | 71 | 200 | 6.0 | 15.0 | 0.00 | 0.00 | 0.00 | 67 | 1009.8 |
| 20260509220105 | 71 | 213 | 12.0 | 18.0 | 0.00 | 0.00 | 0.00 | 65 | 1010.0 |
| 20260509214523 | 72 | 209 | 10.0 | 16.0 | 0.00 | 0.00 | 0.00 | 65 | 1010.0 |
| 20260509213122 | 72 | 194 | 8.0 | 14.0 | 0.00 | 0.00 | 0.00 | 65 | 1010.1 |
| 20260509211553 | 72 | 225 | 11.0 | 15.0 | 0.00 | 0.00 | 0.00 | 64 | 1010.2 |
| 20260509210005 | 73 | 217 | 8.0 | 12.0 | 0.00 | 0.00 | 0.00 | 66 | 1010.3 |
| 20260509204557 | 73 | 210 | 8.0 | 11.0 | 0.00 | 0.00 | 0.00 | 64 | 1010.4 |
| 20260509203015 | 74 | 190 | 6.0 | 10.0 | 0.00 | 0.00 | 0.00 | 63 | 1010.5 |
| 20260509201611 | 74 | 50 | 1.0 | 7.0 | 0.00 | 0.00 | 0.00 | 65 | 1010.6 |
| 20260509200029 | 74 | 22 | 2.0 | 8.0 | 0.00 | 0.00 | 0.00 | 64 | 1010.8 |
| 20260509194620 | 74 | 17 | 4.0 | 7.0 | 0.00 | 0.00 | 0.00 | 63 | 1010.8 |
| 20260509193041 | 74 | 5 | 1.0 | 8.0 | 0.00 | 0.00 | 0.00 | 63 | 1011.0 |
| 20260509191502 | 72 | 48 | 1.0 | 6.0 | 0.00 | 0.00 | 0.00 | 67 | 1011.2 |
| 20260509190054 | 72 | 116 | 3.0 | 6.0 | 0.00 | 0.00 | 0.00 | 65 | 1011.2 |
| 20260509184516 | 70 | 72 | 0.0 | 6.0 | 0.00 | 0.00 | 0.00 | 66 | 1011.4 |
| 20260509183104 | 70 | 22 | 1.0 | 5.0 | 0.00 | 0.00 | 0.00 | 67 | 1011.5 |
| 20260509181523 | 69 | 345 | 2.0 | 6.0 | 0.00 | 0.00 | 0.00 | 69 | 1011.6 |
| 20260509180111 | 68 | 47 | 1.0 | 4.0 | 0.00 | 0.00 | 0.00 | 70 | 1011.7 |
| 20260509174531 | 67 | 78 | 2.0 | 6.0 | 0.00 | 0.00 | 0.00 | 71 | 1011.9 |
| 20260509173122 | 66 | 57 | 2.0 | 5.0 | 0.00 | 0.00 | 0.00 | 73 | 1011.9 |
| 20260509171544 | 64 | 16 | 1.0 | 4.0 | 0.00 | 0.00 | 0.00 | 74 | 1011.9 |
| 20260509170131 | 63 | 348 | 3.0 | 5.0 | 0.00 | 0.00 | 0.00 | 76 | 1011.9 |
| 20260509164558 | 61 | 74 | 2.0 | 5.0 | 0.00 | 0.00 | 0.00 | 81 | 1012.0 |
| 20260509163016 | 58 | 140 | 0.0 | 3.0 | 0.00 | 0.00 | 0.00 | 88 | 1012.1 |
| 20260509161603 | 56 | 103 | 2.0 | 5.0 | 0.00 | 0.00 | 0.00 | 91 | 1012.0 |
| 20260509160021 | 55 | 71 | 0.0 | 4.0 | 0.00 | 0.00 | 0.00 | 92 | 1012.2 |
| 20260509154611 | 54 | 308 | 0.0 | 3.0 | 0.00 | 0.00 | 0.00 | 92 | 1012.3 |
| 20260509153033 | 52 | 231 | 1.0 | 2.0 | 0.00 | 0.00 | 0.00 | 92 | 1012.3 |
| 20260509151626 | 51 | 164 | 0.0 | 2.0 | 0.00 | 0.00 | 0.00 | 92 | 1012.4 |
| 20260509150045 | 50 | 163 | 0.0 | 2.0 | 0.00 | 0.00 | 0.00 | 92 | 1012.4 |
| 20260509144633 | 49 | 163 | 0.0 | 3.0 | 0.00 | 0.00 | 0.00 | 92 | 1012.4 |
| 20260509143057 | 48 | 173 | 1.0 | 2.0 | 0.00 | 0.00 | 0.00 | 92 | 1012.3 |
| 20260509141513 | 47 | 173 | 1.0 | 2.0 | 0.00 | 0.00 | 0.00 | 92 | 1012.3 |
| 20260509140107 | 47 | 173 | 1.0 | 2.0 | 0.00 | 0.00 | 0.00 | 92 | 1012.3 |
| 20260509134521 | 46 | 173 | 0.0 | 3.0 | 0.00 | 0.00 | 0.00 | 92 | 1012.2 |
| 20260509133114 | 46 | 164 | 1.0 | 3.0 | 0.00 | 0.00 | 0.00 | 92 | 1012.1 |
| 20260509131545 | 46 | 173 | 2.0 | 3.0 | 0.00 | 0.00 | 0.00 | 92 | 1012.0 |
| 20260509130129 | 46 | 161 | 1.0 | 2.0 | 0.00 | 0.00 | 0.00 | 92 | 1012.0 |
| 20260509124545 | 45 | 160 | 1.0 | 2.0 | 0.00 | 0.00 | 0.00 | 92 | 1011.9 |
| 20260509123008 | 45 | 160 | 2.0 | 3.0 | 0.00 | 0.00 | 0.00 | 91 | 1011.8 |
| 20260509121600 | 46 | 172 | 1.0 | 3.0 | 0.00 | 0.00 | 0.00 | 92 | 1011.9 |
| 20260509120023 | 46 | 171 | 1.0 | 3.0 | 0.00 | 0.00 | 0.00 | 91 | 1012.1 |
| 20260509114629 | 46 | 169 | 1.0 | 5.0 | 0.00 | 0.00 | 0.00 | 91 | 1012.0 |
| 20260509113031 | 45 | 167 | 3.0 | 3.0 | 0.00 | 0.00 | 0.00 | 91 | 1012.0 |
| 20260509111628 | 46 | 159 | 2.0 | 3.0 | 0.00 | 0.00 | 0.00 | 91 | 1012.0 |
| 20260509110049 | 46 | 157 | 2.0 | 3.0 | 0.00 | 0.00 | 0.00 | 91 | 1011.9 |
| 20260509104503 | 46 | 156 | 1.0 | 5.0 | 0.00 | 0.00 | 0.00 | 91 | 1011.9 |
| 20260509103107 | 45 | 142 | 4.0 | 7.0 | 0.00 | 0.00 | 0.00 | 91 | 1012.1 |
| 20260509101531 | 45 | 164 | 1.0 | 3.0 | 0.00 | 0.00 | 0.00 | 91 | 1012.2 |
| 20260509100112 | 45 | 164 | 2.0 | 4.0 | 0.00 | 0.00 | 0.00 | 91 | 1012.3 |
| 20260509094534 | 45 | 165 | 3.0 | 5.0 | 0.00 | 0.00 | 0.00 | 91 | 1012.1 |
| 20260509093128 | 45 | 165 | 2.0 | 5.0 | 0.00 | 0.00 | 0.00 | 91 | 1012.3 |
| 20260509091554 | 46 | 196 | 1.0 | 4.0 | 0.00 | 0.00 | 0.00 | 90 | 1012.4 |
| 20260509090006 | 46 | 149 | 1.0 | 4.0 | 0.00 | 0.00 | 0.00 | 90 | 1012.5 |
| 20260509084619 | 46 | 178 | 3.0 | 5.0 | 0.00 | 0.00 | 0.00 | 90 | 1012.4 |
| 20260509083020 | 46 | 151 | 3.0 | 6.0 | 0.00 | 0.00 | 0.00 | 90 | 1012.5 |
| 20260509081617 | 46 | 178 | 3.0 | 4.0 | 0.00 | 0.00 | 0.00 | 90 | 1012.8 |
| 20260509080033 | 47 | 170 | 3.0 | 5.0 | 0.00 | 0.00 | 0.00 | 90 | 1012.8 |
| 20260509074624 | 47 | 179 | 1.0 | 3.0 | 0.00 | 0.00 | 0.00 | 89 | 1012.9 |
| 20260509073046 | 47 | 142 | 0.0 | 4.0 | 0.00 | 0.00 | 0.00 | 89 | 1012.9 |
| 20260509071504 | 48 | 173 | 3.0 | 8.0 | 0.00 | 0.00 | 0.00 | 89 | 1012.8 |
| 20260509070057 | 48 | 140 | 2.0 | 7.0 | 0.00 | 0.00 | 0.00 | 89 | 1012.9 |
| 20260509064630 | 48 | 159 | 3.0 | 5.0 | 0.00 | 0.00 | 0.00 | 88 | 1013.0 |
| 20260509063047 | 49 | 194 | 3.0 | 5.0 | 0.00 | 0.00 | 0.00 | 88 | 1013.1 |
| 20260509061513 | 49 | 162 | 1.0 | 4.0 | 0.00 | 0.00 | 0.00 | 87 | 1013.2 |
| 20260509054522 | 50 | 156 | 2.0 | 6.0 | 0.00 | 0.00 | 0.00 | 87 | 1013.2 |
| 20260509053114 | 50 | 176 | 3.0 | 4.0 | 0.00 | 0.00 | 0.00 | 86 | 1013.2 |